Regional Weather Roundup
Issued by NWS Midland/Odessa, TX

Skip options and go directly to product.
Home | Oldest Version | Next Version | Current Version | All | Text Only | Save Text | Print | Product List | Glossary On

Skip product version selection by date and time.   
105
ASUS44 KMAF 200901
RWRMAF
MIDLAND AREA WEATHER ROUNDUP
NATIONAL WEATHER SERVICE MIDLAND TX
300 AM CST SAT DEC 20 2014

...IN SOUTHWEST TEXAS AND SOUTHEAST NEW MEXICO...

CITY           SKY/WX    TMP DP  RH WIND       PRES   REMARKS
ALPINE         CLEAR     31  26  82 W7        30.19F WCI  25
ANDREWS        CLOUDY    35  35 100 CALM      30.16S FOG
ARTESIA        CLEAR     32  27  80 NW6       30.13F WCI  26
BIG SPRING     CLEAR     34  32  92 CALM      30.19S
CARLSBAD       CLEAR     32  26  78 N6        30.12S WCI  26
DRYDEN           N/A     48  42  80 N7        30.14F
FORT STOCKTON  CLEAR     39  32  76 S9        30.14F WCI  33
GUAD PASS      NOT AVBL
HOBBS          FOG       36  36 100 CALM      30.17R VSB<1/4
MARFA          CLEAR     25  19  80 NW7       30.16F WCI  17
MIDLAND AIRPK  CLEAR     36  36 100 CALM      30.17S FOG
MIDLAND INTL   FOG       33  33 100 CALM      30.16S VSB 1/2
ODESSA         CLOUDY    36  33  89 E3        30.16S FOG
PECOS          CLEAR     32  26  78 CALM      30.15F
PRESIDIO       FAIR      46  30  54 N7        30.14S
SEMINOLE       CLOUDY    37  36  98 CALM      30.17S FOG
SNYDER         CLOUDY    42  37  81 SE5       30.18S WCI  39
WINK           CLEAR     31  27  85 N5        30.13F WCI  26
$$
...OTHER STATIONS IN TEXAS...

CITY           SKY/WX    TMP DP  RH WIND       PRES   REMARKS
ABILENE        CLOUDY    45  39  79 N5        30.19S
AMARILLO       CLOUDY    36  34  92 SW13      30.13S WCI  27
AUSTIN         CLOUDY    50  45  83 N9        30.18S
BROWNSVILLE    CLOUDY    61  58  90 NW7       30.10R
CORPUS CHRISTI DRIZZLE   54  51  90 N12       30.14R
DALLAS FTW     CLOUDY    46  41  82 N9        30.21R
DEL RIO        CLOUDY    54  49  83 E6        30.15R
EL PASO        PTCLDY    35  26  69 SE6       30.15S WCI  30
HOUSTON INT    CLOUDY    51  49  92 N12       30.14S
LUBBOCK        CLOUDY    38  36  92 SW9       30.15S WCI  31
SAN ANGELO     CLOUDY    44  40  85 CALM      30.18S
SAN ANTONIO    CLOUDY    48  44  86 NE15      30.16F
WACO           CLOUDY    48  45  89 N6        30.20S
WICHITA FALLS  NOT AVBL
$$
...OTHER LOCATIONS IN NEW MEXICO...

CITY           SKY/WX    TMP DP  RH WIND       PRES   REMARKS
ALAMAGORDO     PTCLDY    30  27  86 SE5       30.17S WCI  25
ALBUQUERQUE    PTCLDY    32  24  72 N6        30.18S WCI  26
CANNON AFB     NOT AVBL
CLOVIS         CLOUDY    30  28  93 S9        30.11F WCI  22
HOLLOMAN AFB   CLEAR     28  25  88 E2        30.15S
ROSWELL        CLEAR     25  18  74 SW3       30.12S
RUIDOSO        PTCLDY    27  16  63 N7        30.14F WCI  19
SANTA FE       PTCLDY    25  18  74 NW9       30.14S WCI  15
TRUTH OR CONSE CLEAR     30  23  75 W5        30.16F WCI  25
TUCUMCARI      PTCLDY    22  19  89 W5        30.07R WCI  16
$$

USA.gov is the U.S. government's official web portal to all federal, state and local government web resources and services.